Weather History for Kirksville, MO

Change the Weather History Date:

Sunday, March 17, 2013

  Actual Average Record
Temperature  
Mean Temperature 33 °F 41 °F  
Max Temperature 38 °F 52 °F 78 °F (2012)
Min Temperature 27 °F 31 °F 10 °F (1941)
Degree Days  
Heating Degree Days 32 24  
Month to date heating degree days 565 462  
Since 1 July heating degree days 4945 4995  
Cooling Degree Days 0 0  
Month to date cooling degree days 0 0  
Year to date cooling degree days 0 0  
Moisture  
Dew Point 26 °F    
Average Humidity 77    
Maximum Humidity 89    
Minimum Humidity 64    
Precipitation  
Precipitation 0.01 in 0.09 in 1.17 in (1965)
Month to date precipitation 2.64 1.43  
Year to date precipitation 8.09 4.23  
Sea Level Pressure  
Sea Level Pressure 30.01 in    
Wind  
Wind Speed 12 mph (ENE)    
Max Wind Speed 20 mph    
Max Gust Speed 26 mph    
Visibility 8 miles    
Events Snow    
T = Trace of Precipitation, MM = Missing Value Source: NWS Daily Summary

Daily Weather History Graph

Daily Weather History Graph

Search for Another Location

Airport:

Trip Planner

Search our weather history database for the weather conditions in past years. The results will help you decide how hot, cold, wet, or windy it might be!

Date:

Astronomy

Mar. 17, 2013 Rise Set
Actual Time 7:18 AM CDT 7:19 PM CDT
Civil Twilight 6:51 AM CDT 7:46 PM CDT
Nautical Twilight 6:19 AM CDT 8:18 PM CDT
Astronomical Twilight 5:47 AM CDT 8:50 PM CDT
Moon 10:30 AM CDT (3/17) 12:27 AM CDT (3/17)
Length of Visible Light 12h 55m
Length of Day
12h 01m
Waxing Crescent, 31% of the Moon is Illuminated
Mar 17
Waxing Crescent
Mar 19
First Quarter
Mar 27
Full
Apr 2
Last Quarter
Apr 10
New

Hourly Weather History & Observations

Time (CDT) Temp. Windchill Dew Point Humidity Pressure Visibility Wind Dir Wind Speed Gust Speed Precip Events Conditions
12:55 AM 30.0 °F 18.7 °F 24.1 °F 79% 30.14 in 10.0 mi NNE 16.1 mph - N/A   Overcast
1:55 AM 30.0 °F 20.0 °F 23.0 °F 75% 30.15 in 10.0 mi NNE 12.7 mph - N/A   Overcast
2:55 AM 28.9 °F 20.4 °F 23.0 °F 78% 30.14 in 10.0 mi NNE 9.2 mph - N/A   Overcast
3:55 AM 28.9 °F 16.5 °F 21.9 °F 75% 30.13 in 10.0 mi NNE 18.4 mph - N/A   Overcast
4:55 AM 28.0 °F 18.1 °F 21.0 °F 75% 30.13 in 10.0 mi NE 11.5 mph - N/A   Overcast
5:55 AM 28.0 °F 18.6 °F 21.9 °F 78% 30.14 in 10.0 mi NE 10.4 mph - N/A   Mostly Cloudy
6:55 AM 27.0 °F 16.1 °F 21.0 °F 78% 30.14 in 10.0 mi NE 12.7 mph - N/A   Overcast
7:55 AM 28.0 °F 18.6 °F 21.9 °F 78% 30.14 in 9.0 mi ENE 10.4 mph - N/A   Overcast
8:34 AM 28.4 °F 19.1 °F 23.0 °F 80% 30.10 in 8.0 mi ENE 10.4 mph - N/A   Overcast
8:55 AM 28.9 °F 20.4 °F 23.0 °F 78% 30.14 in 8.0 mi ENE 9.2 mph - N/A   Overcast
9:27 AM 28.4 °F 19.1 °F 24.8 °F 86% 30.10 in 10.0 mi ENE 10.4 mph - N/A   Overcast
9:55 AM 30.0 °F 20.5 °F 23.0 °F 75% 30.14 in 10.0 mi East 11.5 mph - N/A   Overcast
10:55 AM 30.9 °F 21.2 °F 24.1 °F 76% 30.12 in 10.0 mi ENE 12.7 mph - N/A   Overcast
11:27 AM 32.0 °F 21.2 °F 24.8 °F 75% 30.07 in 10.0 mi East 16.1 mph - N/A   Overcast
11:55 AM 32.0 °F 22.1 °F 25.0 °F 75% 30.10 in 10.0 mi East 13.8 mph - N/A   Overcast
12:55 PM 34.0 °F 26.0 °F 26.1 °F 73% 30.07 in 10.0 mi East 10.4 mph - N/A   Overcast
1:55 PM 36.0 °F 27.5 °F 26.1 °F 67% 30.04 in 10.0 mi East 12.7 mph 19.6 mph N/A   Overcast
2:20 PM 37.4 °F 28.2 °F 26.6 °F 65% 29.99 in 10.0 mi East 16.1 mph 20.7 mph N/A   Overcast
2:55 PM 37.9 °F 30.0 °F 27.0 °F 65% 30.00 in 10.0 mi East 12.7 mph 20.7 mph N/A   Overcast
3:37 PM 37.4 °F 29.3 °F 28.4 °F 70% 29.93 in 10.0 mi East 12.7 mph - N/A   Overcast
3:55 PM 37.0 °F 28.9 °F 28.0 °F 70% 29.96 in 10.0 mi East 12.7 mph - N/A   Overcast
4:18 PM 37.4 °F 29.3 °F 26.6 °F 65% 29.92 in 10.0 mi East 12.7 mph - N/A   Overcast
4:55 PM 37.0 °F 28.9 °F 27.0 °F 67% 29.95 in 10.0 mi East 12.7 mph 21.9 mph N/A   Overcast
5:55 PM 36.0 °F 27.5 °F 27.0 °F 70% 29.94 in 10.0 mi East 12.7 mph 20.7 mph N/A   Overcast
6:25 PM 33.8 °F 24.3 °F 28.4 °F 81% 29.89 in 1.8 mi East 13.8 mph - 0.00 in Snow Light Snow
6:55 PM 33.1 °F 24.9 °F 30.0 °F 89% 29.92 in 1.5 mi East 10.4 mph - 0.01 in Snow Light Snow
7:08 PM 33.8 °F 25.3 °F 30.2 °F 87% 29.87 in 2.0 mi East 11.5 mph - 0.00 in Snow Light Snow
7:28 PM 33.8 °F 24.3 °F 30.2 °F 87% 29.88 in 4.0 mi East 13.8 mph 20.7 mph 0.00 in Snow Light Snow
7:55 PM 33.1 °F 23.9 °F 30.0 °F 89% 29.92 in 4.0 mi East 12.7 mph - 0.00 in Snow Light Snow
8:30 PM 33.8 °F 24.8 °F 28.4 °F 81% 29.87 in 7.0 mi East 12.7 mph - 0.00 in   Overcast
8:55 PM 33.1 °F 23.9 °F 28.9 °F 85% 29.88 in 7.0 mi East 12.7 mph 23.0 mph 0.00 in   Overcast
9:35 PM 33.8 °F 24.3 °F 30.2 °F 87% 29.86 in 8.0 mi East 13.8 mph 19.6 mph N/A   Overcast
9:55 PM 33.1 °F 24.4 °F 30.0 °F 89% 29.88 in 8.0 mi ENE 11.5 mph - N/A   Overcast
10:55 PM 33.1 °F 23.9 °F 30.0 °F 89% 29.87 in 8.0 mi East 12.7 mph - N/A   Overcast
11:55 PM 34.0 °F 25.5 °F 30.0 °F 85% 29.84 in 8.0 mi ENE 11.5 mph - N/A   Overcast